GIA616 BGSF-LPPD

Flight info

Callsign GIA616
Flight time N/A
Altitude 35000
Route INPOD DCT TOLAN/M076F280 UT588 ASVID/M083F360 DCT NQ/M083F370 DCT H5843 DCT H5540 DCT 5035N DCT 4330N DCT LM/M074F280 H113 MIPRU
Aircraft B77W/H-SDE1E2E3FGHIJ4J5M1RWXY/LB1D1

Departure

Time 2026-05-07 12:23
Airport Kangerlussuaq International Airport (BGSF)

Arrival

Time N/A
Airport João Paulo II Airport (LPPD)
Time Latitude Longitude Altitude Speed Heading
2026-05-07 12:00 67.00824 -50.71040 147 ft 0 kts 156°
2026-05-07 12:13 67.00825 -50.71041 147 ft 2 kts 156°
2026-05-07 12:13 67.00842 -50.71056 147 ft 4 kts 190°
2026-05-07 12:13 67.00846 -50.71067 147 ft 4 kts 244°
2026-05-07 12:13 67.00846 -50.71051 147 ft 4 kts 275°
2026-05-07 12:14 67.00845 -50.70984 147 ft 4 kts 263°
2026-05-07 12:14 67.00850 -50.70929 148 ft 2 kts 239°
2026-05-07 12:14 67.00850 -50.70926 148 ft 0 kts 238°
2026-05-07 12:16 67.00844 -50.70962 148 ft 5 kts 249°
2026-05-07 12:16 67.00833 -50.71084 146 ft 9 kts 257°
2026-05-07 12:16 67.00816 -50.71274 145 ft 13 kts 252°
2026-05-07 12:17 67.00772 -50.71497 142 ft 15 kts 240°
2026-05-07 12:17 67.00725 -50.71726 140 ft 15 kts 251°
2026-05-07 12:17 67.00783 -50.71907 139 ft 15 kts 333°
2026-05-07 12:17 67.00874 -50.72028 139 ft 15 kts 332°
2026-05-07 12:18 67.00963 -50.72156 138 ft 15 kts 322°
2026-05-07 12:18 67.00964 -50.72392 131 ft 15 kts 239°
2026-05-07 12:18 67.00911 -50.72623 127 ft 15 kts 239°
2026-05-07 12:18 67.00859 -50.72859 126 ft 16 kts 241°
2026-05-07 12:19 67.00803 -50.73124 126 ft 18 kts 244°
2026-05-07 12:19 67.00744 -50.73426 118 ft 20 kts 242°
2026-05-07 12:19 67.00674 -50.73747 115 ft 21 kts 240°
2026-05-07 12:19 67.00606 -50.74071 114 ft 21 kts 245°
2026-05-07 12:20 67.00578 -50.74288 111 ft 3 kts 213°
2026-05-07 12:20 67.00570 -50.74287 111 ft 0 kts 177°
2026-05-07 12:20 67.00566 -50.74280 111 ft 1 kts 154°
2026-05-07 12:20 67.00563 -50.74267 111 ft 1 kts 128°
2026-05-07 12:21 67.00562 -50.74252 112 ft 1 kts 101°
2026-05-07 12:21 67.00564 -50.74238 113 ft 1 kts 75°
2026-05-07 12:21 67.00568 -50.74227 110 ft 1 kts 50°
2026-05-07 12:21 67.00572 -50.74216 112 ft 1 kts 52°
2026-05-07 12:22 67.00597 -50.74107 115 ft 20 kts 61°
2026-05-07 12:22 67.00757 -50.73352 119 ft 86 kts 62°
2026-05-07 12:22 67.01157 -50.71461 148 ft 153 kts 61°
2026-05-07 12:22 67.01719 -50.68675 369 ft 187 kts 64°
2026-05-07 12:23 67.02174 -50.65542 941 ft 192 kts 80°
2026-05-07 12:23 67.02416 -50.62066 1485 ft 203 kts 81°
2026-05-07 12:23 67.02717 -50.58516 2319 ft 207 kts 78°
2026-05-07 12:23 67.03062 -50.54740 2748 ft 227 kts 83°
2026-05-07 12:24 67.02869 -50.50579 2881 ft 253 kts 119°
2026-05-07 12:24 67.01651 -50.47506 3712 ft 248 kts 155°
2026-05-07 12:24 66.99977 -50.46875 4663 ft 248 kts 192°
2026-05-07 12:24 66.98430 -50.48771 5541 ft 248 kts 208°
2026-05-07 12:25 66.96821 -50.50314 6142 ft 254 kts 190°
2026-05-07 12:25 66.95050 -50.51151 7003 ft 256 kts 189°
2026-05-07 12:25 66.93298 -50.51990 7853 ft 259 kts 189°
2026-05-07 12:25 66.91506 -50.52815 8661 ft 262 kts 188°
2026-05-07 12:26 66.89697 -50.53705 9453 ft 267 kts 189°
2026-05-07 12:26 66.87860 -50.54624 10238 ft 271 kts 189°
2026-05-07 12:26 66.85963 -50.55508 10718 ft 288 kts 188°
2026-05-07 12:26 66.83890 -50.56391 10917 ft 315 kts 187°
2026-05-07 12:27 66.81639 -50.57293 11134 ft 340 kts 187°
2026-05-07 12:27 66.79282 -50.58199 11782 ft 351 kts 186°
2026-05-07 12:27 66.76856 -50.59105 12684 ft 357 kts 186°
2026-05-07 12:27 66.74370 -50.60013 13768 ft 360 kts 185°
2026-05-07 12:28 66.71881 -50.60910 14728 ft 364 kts 185°
2026-05-07 12:28 66.69368 -50.61807 15647 ft 368 kts 184°
2026-05-07 12:28 66.66812 -50.62716 16576 ft 372 kts 184°
2026-05-07 12:28 66.64238 -50.63628 17478 ft 376 kts 184°
2026-05-07 12:29 66.61627 -50.64553 18378 ft 381 kts 184°
2026-05-07 12:29 66.58999 -50.65481 19136 ft 386 kts 184°
2026-05-07 12:29 66.56312 -50.66426 19887 ft 389 kts 183°
2026-05-07 12:29 66.53623 -50.66540 20427 ft 388 kts 168°
2026-05-07 12:30 66.51022 -50.64716 21077 ft 390 kts 155°
2026-05-07 12:30 66.48641 -50.61474 21773 ft 391 kts 148°
2026-05-07 12:30 66.46293 -50.57946 22445 ft 397 kts 148°
2026-05-07 12:30 66.43925 -50.54347 23135 ft 401 kts 148°
2026-05-07 12:31 66.41520 -50.50700 23804 ft 406 kts 148°
2026-05-07 12:31 66.39099 -50.47060 24387 ft 410 kts 148°
2026-05-07 12:31 66.36636 -50.43391 25007 ft 412 kts 148°
2026-05-07 12:31 66.34157 -50.39726 25625 ft 415 kts 149°
2026-05-07 12:32 66.31660 -50.36056 26194 ft 418 kts 149°
2026-05-07 12:32 66.29177 -50.32420 26745 ft 421 kts 149°
2026-05-07 12:32 66.26648 -50.28727 27284 ft 424 kts 149°
2026-05-07 12:32 66.24157 -50.25100 27810 ft 427 kts 149°
2026-05-07 12:33 66.19016 -50.17647 28820 ft 433 kts 149°
2026-05-07 12:33 66.16539 -50.14067 29271 ft 435 kts 149°
2026-05-07 12:33 66.13905 -50.10268 29713 ft 438 kts 149°
2026-05-07 12:34 66.11262 -50.06466 30210 ft 438 kts 149°
2026-05-07 12:34 66.08638 -50.02700 30738 ft 436 kts 149°
2026-05-07 12:34 66.06017 -49.98948 31214 ft 435 kts 149°
2026-05-07 12:34 66.03396 -49.95204 31645 ft 435 kts 149°
2026-05-07 12:35 66.00771 -49.91463 32064 ft 436 kts 148°
2026-05-07 12:35 65.98157 -49.87748 32493 ft 435 kts 148°
2026-05-07 12:35 65.95529 -49.84022 32935 ft 435 kts 148°
2026-05-07 12:35 65.92912 -49.80320 33329 ft 435 kts 148°
2026-05-07 12:36 65.90289 -49.76618 33718 ft 434 kts 148°
2026-05-07 12:36 65.87717 -49.72996 34124 ft 434 kts 148°
2026-05-07 12:36 65.85176 -49.69427 34436 ft 434 kts 148°
2026-05-07 12:36 65.82591 -49.65804 34683 ft 436 kts 148°
2026-05-07 12:37 65.80024 -49.62214 34911 ft 438 kts 148°
2026-05-07 12:37 65.77377 -49.58522 35075 ft 441 kts 148°
2026-05-07 12:37 65.71999 -49.51043 35157 ft 449 kts 149°
2026-05-07 12:38 65.66519 -49.43459 35354 ft 456 kts 149°
2026-05-07 12:38 65.63759 -49.39654 35515 ft 457 kts 149°
2026-05-07 12:38 65.60983 -49.35865 35714 ft 458 kts 150°
2026-05-07 12:39 65.58128 -49.32495 35881 ft 460 kts 155°
2026-05-07 12:39 65.55197 -49.29514 36055 ft 461 kts 156°
2026-05-07 12:39 65.52269 -49.26548 36222 ft 462 kts 156°
2026-05-07 12:39 65.49262 -49.23493 36404 ft 463 kts 156°
2026-05-07 12:40 65.46366 -49.20542 36573 ft 463 kts 156°
2026-05-07 12:40 65.43326 -49.17440 36752 ft 464 kts 156°
2026-05-07 12:40 65.40359 -49.14412 36918 ft 465 kts 156°
2026-05-07 12:40 65.38387 -49.12402 37058 ft 464 kts 156°
2026-05-07 12:41 65.31484 -49.05383 37160 ft 460 kts 157°
2026-05-07 12:41 65.25629 -48.99465 37158 ft 455 kts 157°
2026-05-07 12:42 65.20745 -48.94551 37162 ft 454 kts 157°
2026-05-07 12:42 65.14923 -48.88719 37160 ft 453 kts 157°
2026-05-07 12:43 65.09109 -48.82923 37161 ft 454 kts 157°
2026-05-07 12:43 65.03275 -48.77134 37157 ft 455 kts 157°
2026-05-07 12:44 64.97456 -48.71388 37151 ft 456 kts 158°
2026-05-07 12:44 64.91583 -48.65615 37156 ft 458 kts 158°
2026-05-07 12:45 64.85697 -48.59858 37153 ft 459 kts 158°
2026-05-07 12:45 64.79789 -48.54105 37158 ft 460 kts 158°
2026-05-07 12:46 64.73874 -48.48373 37151 ft 460 kts 158°
2026-05-07 12:46 64.67956 -48.42661 37153 ft 460 kts 158°
2026-05-07 12:47 64.62030 -48.36971 37152 ft 460 kts 158°
2026-05-07 12:47 64.56115 -48.31251 37153 ft 460 kts 158°
2026-05-07 12:48 64.50232 -48.25556 37156 ft 460 kts 158°
2026-05-07 12:48 64.44323 -48.19866 37154 ft 460 kts 158°
2026-05-07 12:49 64.38399 -48.14192 37152 ft 461 kts 158°
2026-05-07 12:49 64.32507 -48.08578 37156 ft 461 kts 158°
2026-05-07 12:50 64.26563 -48.02941 37156 ft 462 kts 159°
2026-05-07 12:50 64.20599 -47.97312 37159 ft 464 kts 159°
2026-05-07 12:51 64.14627 -47.91701 37158 ft 465 kts 159°
2026-05-07 12:51 64.08625 -47.86089 37160 ft 466 kts 159°
2026-05-07 12:52 64.02618 -47.80499 37159 ft 467 kts 159°
2026-05-07 12:52 63.96596 -47.74919 37162 ft 467 kts 159°
2026-05-07 12:53 63.90602 -47.69392 37162 ft 468 kts 160°
2026-05-07 12:53 63.84563 -47.63849 37165 ft 468 kts 160°
2026-05-07 12:54 63.78525 -47.58332 37169 ft 468 kts 160°
2026-05-07 12:54 63.72475 -47.52830 37171 ft 469 kts 160°
2026-05-07 12:55 63.66418 -47.47348 37172 ft 469 kts 160°
2026-05-07 12:55 63.60359 -47.41888 37174 ft 468 kts 160°
2026-05-07 12:56 63.54306 -47.36459 37173 ft 469 kts 160°
2026-05-07 12:56 63.48250 -47.31052 37192 ft 468 kts 160°
2026-05-07 12:57 63.42224 -47.25697 37176 ft 469 kts 160°
2026-05-07 12:57 63.36159 -47.20331 37177 ft 469 kts 160°
2026-05-07 12:58 63.30089 -47.14985 37190 ft 469 kts 161°
2026-05-07 12:58 63.24005 -47.09652 37193 ft 469 kts 161°
2026-05-07 12:59 63.17926 -47.04347 37190 ft 470 kts 161°
2026-05-07 12:59 63.11834 -46.99053 37196 ft 470 kts 161°
2026-05-07 13:00 63.05736 -46.93779 37195 ft 470 kts 161°
2026-05-07 13:00 62.99677 -46.88563 37205 ft 470 kts 161°
2026-05-07 13:01 62.93577 -46.83335 37202 ft 471 kts 161°
2026-05-07 13:01 62.87454 -46.78110 37220 ft 471 kts 161°
2026-05-07 13:02 62.81327 -46.72906 37219 ft 472 kts 161°
2026-05-07 13:02 62.75194 -46.67719 37214 ft 473 kts 161°
2026-05-07 13:03 62.69051 -46.62547 37216 ft 474 kts 161°
2026-05-07 13:03 62.62884 -46.57378 37218 ft 474 kts 161°
2026-05-07 13:04 62.56763 -46.52270 37217 ft 475 kts 161°
2026-05-07 13:04 62.50586 -46.47138 37221 ft 475 kts 161°
2026-05-07 13:05 62.44407 -46.42028 37225 ft 475 kts 161°
2026-05-07 13:05 62.38227 -46.36939 37215 ft 476 kts 161°
2026-05-07 13:06 62.32029 -46.31859 37221 ft 477 kts 162°
2026-05-07 13:06 62.25883 -46.26843 37218 ft 478 kts 162°
2026-05-07 13:07 62.19599 -46.21737 37229 ft 478 kts 162°
2026-05-07 13:07 62.13358 -46.16688 37234 ft 479 kts 162°
2026-05-07 13:08 62.07155 -46.11693 37238 ft 480 kts 162°
2026-05-07 13:08 62.00895 -46.06673 37237 ft 481 kts 162°
2026-05-07 13:09 61.94614 -46.01658 37244 ft 483 kts 162°
2026-05-07 13:09 61.88310 -45.96648 37246 ft 484 kts 162°
2026-05-07 13:10 61.81992 -45.91648 37256 ft 485 kts 162°
2026-05-07 13:10 61.75652 -45.86653 37259 ft 486 kts 162°
2026-05-07 13:11 61.69364 -45.81720 37263 ft 487 kts 163°
2026-05-07 13:11 61.62933 -45.76698 37264 ft 489 kts 163°
2026-05-07 13:12 61.56959 -45.72052 37260 ft 489 kts 163°
2026-05-07 13:12 61.50570 -45.67105 37258 ft 490 kts 163°
2026-05-07 13:13 61.44176 -45.62174 37266 ft 490 kts 163°
2026-05-07 13:13 61.37764 -45.57252 37257 ft 491 kts 163°
2026-05-07 13:14 61.31357 -45.52355 37275 ft 491 kts 163°
2026-05-07 13:14 61.24927 -45.47462 37275 ft 492 kts 163°
2026-05-07 13:15 61.18490 -45.42582 37265 ft 493 kts 164°
2026-05-07 13:15 61.12187 -45.37108 37266 ft 497 kts 159°
2026-05-07 13:16 61.05951 -45.30901 37266 ft 497 kts 158°
2026-05-07 13:16 60.99721 -45.24723 37255 ft 497 kts 159°
2026-05-07 13:17 60.93480 -45.18610 37257 ft 496 kts 159°
2026-05-07 13:17 60.87238 -45.12549 37264 ft 496 kts 159°
2026-05-07 13:18 60.80985 -45.06507 37269 ft 496 kts 159°
2026-05-07 13:18 60.74730 -45.00487 37270 ft 497 kts 159°
2026-05-07 13:19 60.68464 -44.94481 37285 ft 498 kts 160°
2026-05-07 13:19 60.62179 -44.88483 37285 ft 499 kts 160°
2026-05-07 13:20 60.55888 -44.82502 37282 ft 499 kts 160°
2026-05-07 13:20 60.49592 -44.76543 37298 ft 500 kts 160°
2026-05-07 13:21 60.43281 -44.70597 37299 ft 500 kts 160°
2026-05-07 13:21 60.36972 -44.64680 37297 ft 500 kts 160°
2026-05-07 13:22 60.30681 -44.58803 37300 ft 500 kts 160°
2026-05-07 13:22 60.24363 -44.52925 37303 ft 501 kts 160°
2026-05-07 13:23 60.18030 -44.47061 37298 ft 502 kts 160°
2026-05-07 13:23 60.11693 -44.41215 37318 ft 502 kts 161°
2026-05-07 13:24 60.05335 -44.35375 37314 ft 502 kts 161°
2026-05-07 13:24 59.98975 -44.29558 37313 ft 502 kts 161°
2026-05-07 13:25 59.92613 -44.23766 37310 ft 502 kts 161°
2026-05-07 13:25 59.86252 -44.18001 37306 ft 502 kts 161°
2026-05-07 13:26 59.80964 -44.13222 37307 ft 502 kts 161°
2026-05-07 13:26 59.74605 -44.07499 37315 ft 502 kts 161°
2026-05-07 13:27 59.68233 -44.01791 37308 ft 502 kts 161°
2026-05-07 13:27 59.61856 -43.96102 37305 ft 503 kts 161°
2026-05-07 13:28 59.55463 -43.90422 37301 ft 504 kts 161°
2026-05-07 13:28 59.49070 -43.84764 37295 ft 504 kts 161°
2026-05-07 13:29 59.42710 -43.79159 37296 ft 504 kts 162°
2026-05-07 13:29 59.36306 -43.73539 37300 ft 504 kts 162°
2026-05-07 13:30 59.29903 -43.67944 37290 ft 504 kts 162°
2026-05-07 13:30 59.23480 -43.62354 37290 ft 505 kts 162°
2026-05-07 13:31 59.17058 -43.56788 37291 ft 505 kts 162°
2026-05-07 13:31 59.10630 -43.51241 37282 ft 505 kts 162°
2026-05-07 13:32 59.04232 -43.45741 37284 ft 506 kts 162°
2026-05-07 13:32 58.97790 -43.40226 37278 ft 506 kts 162°
2026-05-07 13:33 58.91339 -43.34726 37278 ft 507 kts 162°
2026-05-07 13:33 58.84883 -43.29244 37290 ft 507 kts 162°
2026-05-07 13:34 58.75174 -43.21043 37268 ft 509 kts 162°
2026-05-07 13:35 58.68680 -43.15584 37274 ft 509 kts 162°
2026-05-07 13:35 58.62178 -43.10140 37267 ft 510 kts 162°
2026-05-07 13:36 58.55671 -43.04711 37272 ft 510 kts 162°
2026-05-07 13:36 58.49195 -42.99191 37272 ft 512 kts 159°
2026-05-07 13:37 58.42961 -42.92470 37274 ft 515 kts 155°
2026-05-07 13:37 58.36767 -42.85607 37271 ft 515 kts 155°
2026-05-07 13:38 58.30543 -42.78787 37264 ft 515 kts 156°
2026-05-07 13:38 58.24355 -42.72083 37269 ft 516 kts 156°
2026-05-07 13:39 58.18103 -42.65355 37270 ft 517 kts 156°
2026-05-07 13:39 58.11835 -42.58635 37268 ft 518 kts 156°
2026-05-07 13:40 58.05553 -42.51924 37281 ft 519 kts 156°
2026-05-07 13:40 57.99256 -42.45223 37265 ft 520 kts 156°
2026-05-07 13:41 57.92949 -42.38537 37273 ft 521 kts 156°
2026-05-07 13:41 57.86629 -42.31866 37282 ft 522 kts 156°
2026-05-07 13:42 57.80284 -42.25196 37259 ft 522 kts 156°
2026-05-07 13:42 57.73948 -42.18559 37266 ft 521 kts 156°
2026-05-07 13:43 57.67628 -42.11967 37268 ft 520 kts 156°
2026-05-07 13:43 57.61308 -42.05404 37275 ft 520 kts 156°
2026-05-07 13:44 57.54971 -41.98851 37275 ft 520 kts 156°
2026-05-07 13:44 57.48634 -41.92322 37277 ft 521 kts 156°
2026-05-07 13:45 57.42282 -41.85805 37279 ft 522 kts 156°
2026-05-07 13:45 57.35919 -41.79302 37278 ft 523 kts 156°
2026-05-07 13:46 57.29540 -41.72808 37282 ft 524 kts 156°
2026-05-07 13:46 57.23140 -41.66319 37284 ft 525 kts 156°
2026-05-07 13:47 57.16729 -41.59844 37284 ft 526 kts 156°
2026-05-07 13:47 57.10337 -41.53414 37285 ft 527 kts 156°
2026-05-07 13:48 57.03895 -41.46960 37281 ft 527 kts 156°
2026-05-07 13:48 56.97451 -41.40529 37280 ft 528 kts 156°
2026-05-07 13:49 56.90984 -41.34101 37288 ft 528 kts 156°
2026-05-07 13:49 56.84520 -41.27702 37280 ft 529 kts 156°
2026-05-07 13:50 56.78037 -41.21308 37292 ft 529 kts 156°
2026-05-07 13:50 56.71558 -41.14945 37304 ft 530 kts 156°
2026-05-07 13:51 56.65043 -41.08573 37285 ft 532 kts 156°
2026-05-07 13:51 56.58517 -41.02213 37288 ft 533 kts 156°
2026-05-07 13:52 56.51982 -40.95868 37294 ft 533 kts 156°
2026-05-07 13:52 56.45487 -40.89588 37281 ft 532 kts 156°
2026-05-07 13:53 56.38956 -40.83298 37290 ft 531 kts 156°
2026-05-07 13:53 56.32428 -40.77037 37296 ft 531 kts 156°
2026-05-07 13:54 56.25894 -40.70793 37309 ft 532 kts 156°
2026-05-07 13:54 56.19340 -40.64557 37303 ft 534 kts 156°
2026-05-07 13:55 56.12752 -40.58311 37293 ft 535 kts 156°
2026-05-07 13:55 56.06167 -40.52090 37298 ft 535 kts 156°
2026-05-07 13:56 55.99574 -40.45888 37304 ft 535 kts 156°
2026-05-07 13:56 55.92970 -40.39699 37322 ft 536 kts 156°
2026-05-07 13:57 55.86385 -40.33553 37306 ft 539 kts 156°
2026-05-07 13:57 55.79728 -40.27363 37295 ft 540 kts 156°
2026-05-07 13:58 55.73074 -40.21197 37291 ft 538 kts 156°
2026-05-07 13:58 55.66439 -40.15072 37298 ft 537 kts 156°
2026-05-07 13:59 55.62815 -40.11738 37321 ft 537 kts 156°
2026-05-07 13:59 55.61161 -40.10219 37321 ft 537 kts 156°
2026-05-07 14:00 55.59176 -40.08398 37316 ft 537 kts 156°
2026-05-07 14:00 55.57187 -40.06587 37312 ft 537 kts 157°
2026-05-07 14:01 55.55519 -40.05130 37334 ft 535 kts 159°
2026-05-07 14:01 55.53378 -40.03430 37361 ft 533 kts 162°